Simultaneous Nadir Overpasses (SNOs) Predictions

Prediction of SNOs between AURA and NPP Satellite Orbit:

Table of predicted SNOs for the next 14.0 days since TLE Epoch: 2/13/2021
Index Date (AURA) Time (AURA) Lat,Lon (AURA) SZA (AURA ) Date (NPP) Time (NPP) Lat,Lon (NPP) SZA (NPP ) Distance(km) Time Diff (sec)
1 02/15/2021 11:24:53 -79.59, 86.28 74.82 02/15/2021 11:24:11 -79.60, 86.43 74.81 3.19 42
2 02/15/2021 12:14:14 79.78,-104.72 104.90 02/15/2021 12:14:50 79.77,-104.74 104.88 0.46 36
3 02/18/2021 03:41:23 -79.60,-157.76 75.76 02/18/2021 03:41:06 -79.60,-157.80 75.74 0.99 17
4 02/18/2021 04:30:42 79.86, 11.79 103.85 02/18/2021 04:31:42 79.86, 11.88 103.78 2.02 60
5 02/20/2021 19:08:29 79.45, 149.42 103.52 02/20/2021 19:07:19 79.45, 149.39 103.58 0.61 70
6 02/20/2021 19:57:49 -79.72, -41.01 76.90 02/20/2021 19:57:56 -79.73, -40.93 76.92 1.68 7
7 02/23/2021 11:24:55 79.61, -93.63 102.32 02/23/2021 11:24:09 79.61, -93.50 102.33 2.65 46
8 02/23/2021 12:14:18 -79.76, 75.17 77.93 02/23/2021 12:14:50 -79.76, 75.10 77.94 1.62 32
9 02/26/2021 03:41:25 79.60, 22.24 101.33 02/26/2021 03:41:04 79.61, 22.23 101.34 0.26 21



Historial Predications of SNOs between AURA and NPP
